Terminal Aerodrome Forecast
Issued by NWS Duluth, MN

Home | Current Version | Previous Version | Text Only | Print | Product List | Glossary On
Versions: 1 2 3 4 5 6 7 8 9 10 11 12 13 14 15 16 17 18 19 20 21 22 23 24 25 26 27 28 29 30
000
FTUS43 KDLH 251000 AAA
TAFDLH
TAF AMD
KDLH 251039Z 2511/2606 18013KT 4SM -RASN OVC008
      TEMPO 2511/2514 2SM -FZDZ OVC003
     FM251400 24014KT 6SM -SN OVC020
      TEMPO 2514/2517 2SM -SN
     FM252000 29016G28KT P6SM VCSH OVC035
     FM260000 30015KT P6SM BKN040=

USA.gov is the U.S. government's official web portal to all federal, state and local government web resources and services.